Starlink 11459

operational
NORAD ID: 62464 Int'l Des: 2024-254 Owner: SPXS Country: US Constellation: starlink
LEOCIRCULAR

Über Starlink 11459

Beschreibung wird geladen...

Live-Position

3D-Globus wird geladen...

Nächste Überflüge

Höhenverlauf

Altitude vs Time

uPlot chart will show altitude changes over time

Zweizeiliger Elementsatz

1 62464U 24254C 25301.66674769 .00043269 00000-0 32691-3 0 9999
2 62464 42.9994 298.5577 0000847 249.8217 334.7638 15.71700369 6005
Epoch: 28. Okt. 2025 • Age: 8 hours

Aktueller Status

Höhe 365.5 km
Geschwindigkeit 7.69 km/s
Subsatellitenpunkt -39.90°S, 162.67°W
Startdatum 31. Dez. 2024
Alter 0.8 years
Typ internet

Technische Details

Klassifizierung Payload
Masse 960.00 kg
Trockenmasse 910.00 kg
Gesamtmasse 960.00 kg
Länge 0.30 m
Durchmesser 4.10 m
Spannweite 29.00 m
Form Box + pan
Hersteller SPXS
Bus-Typ Starlink V2MD
Phasenstatus In Orbit
Besitzer/Staat SPXS/US

Große Konstellationen

Loading constellations...